Weather History for Billings, MT

Change the Weather History Date:

Wednesday, November 16, 2011

  Actual Average Record
Temperature  
Mean Temperature 29 °F 36 °F  
Max Temperature 37 °F 45 °F 66 °F (1953)
Min Temperature 20 °F 26 °F -22 °F (1959)
Degree Days  
Heating Degree Days 36 29  
Month to date heating degree days 461 417  
Since 1 July heating degree days 968 1169  
Cooling Degree Days 0 0  
Month to date cooling degree days 0 0  
Year to date cooling degree days 734 636  
Moisture  
Dew Point 6 °F    
Average Humidity 45    
Maximum Humidity 68    
Minimum Humidity 22    
Precipitation  
Precipitation T in 0.02 in 0.54 in (1969)
Month to date precipitation 0.37 0.35  
Year to date precipitation 19.24 12.88  
Snow  
Snow T in 0.20 in 4.60 in (1969)
Month to date snowfall 4.0 3.0  
Since 1 July snowfall 4.0 8.2  
Since 1 September snowfall 4.0 8.2  
Snow Depth 0.00 in    
Sea Level Pressure  
Sea Level Pressure 30.24 in    
Wind  
Wind Speed 14 mph (WSW)    
Max Wind Speed 24 mph    
Max Gust Speed 30 mph    
Visibility 10 miles    
Events      
T = Trace of Precipitation, MM = Missing Value Source: NWS Daily Summary

Daily Weather History Graph

Daily Weather History Graph

Search for Another Location

Airport:

Trip Planner

Search our weather history database for the weather conditions in past years. The results will help you decide how hot, cold, wet, or windy it might be!

Date:

Astronomy

Nov. 16, 2011 Rise Set
Actual Time 7:15 AM MST 4:42 PM MST
Civil Twilight 6:42 AM MST 5:14 PM MST
Nautical Twilight 6:06 AM MST 5:50 PM MST
Astronomical Twilight 5:31 AM MST 6:25 PM MST
Moon 10:02 PM MST (11/16) 11:51 AM MST (11/16)
Length of Visible Light 10h 31m
Length of Day
9h 26m
Waning Gibbous, 69% of the Moon is Illuminated
Nov 16
Waning Gibbous
Nov 18
Last Quarter
Nov 24
New
Dec 2
First Quarter
Dec 10
Full

Hourly Weather History & Observations

Time (MST) Temp. Windchill Dew Point Humidity Pressure Visibility Wind Dir Wind Speed Gust Speed Precip Events Conditions
12:53 AM 25.0 °F 13.6 °F 12.9 °F 60% 30.22 in 10.0 mi WNW 12.7 mph - N/A   Overcast
1:53 AM 24.1 °F 11.0 °F 15.1 °F 69% 30.25 in 10.0 mi NW 16.1 mph - 0.00 in   Overcast
2:53 AM 23.0 °F 9.6 °F 12.0 °F 63% 30.27 in 10.0 mi WNW 16.1 mph 24.2 mph N/A   Partly Cloudy
3:53 AM 21.9 °F 8.7 °F 10.0 °F 60% 30.29 in 10.0 mi West 15.0 mph - N/A   Clear
4:53 AM 21.0 °F 8.6 °F 7.0 °F 55% 30.30 in 10.0 mi West 12.7 mph - N/A   Clear
5:53 AM 21.0 °F 7.6 °F 3.9 °F 48% 30.31 in 10.0 mi West 15.0 mph - N/A   Clear
6:53 AM 21.9 °F 11.0 °F 3.0 °F 44% 30.32 in 10.0 mi WSW 10.4 mph - N/A   Clear
7:53 AM 21.9 °F 9.2 °F 3.9 °F 46% 30.35 in 10.0 mi WSW 13.8 mph - N/A   Clear
8:53 AM 21.2 °F 8.3 °F 6.8 °F 54% 30.22 in 10.0 mi SW 13.8 mph - N/A   Clear
9:53 AM 25.0 °F 14.8 °F 8.1 °F 49% 30.34 in 10.0 mi SW 10.4 mph - N/A   Partly Cloudy
10:53 AM 30.0 °F 18.3 °F 5.0 °F 35% 30.32 in 10.0 mi WSW 17.3 mph - N/A   Clear
11:53 AM 33.1 °F 21.2 °F -0.0 °F 24% 30.29 in 10.0 mi WSW 20.7 mph 25.3 mph N/A   Clear
12:44 PM 33.8 °F 23.5 °F -0.4 °F 23% 30.16 in 10.0 mi WSW 16.1 mph - N/A   Partly Cloudy
12:53 PM 35.6 °F 27.1 °F -0.4 °F 22% 30.26 in 10.0 mi SW 12.7 mph - N/A   Partly Cloudy
1:53 PM 36.0 °F 27.5 °F 1.0 °F 23% 30.25 in 10.0 mi WSW 12.7 mph - N/A   Clear
2:53 PM 35.1 °F 24.5 °F 1.9 °F 25% 30.25 in 10.0 mi WSW 18.4 mph 24.2 mph N/A   Partly Cloudy
3:53 PM 33.1 °F 24.4 °F 5.0 °F 31% 30.26 in 10.0 mi SW 11.5 mph - N/A   Partly Cloudy
4:53 PM 30.2 °F 20.8 °F 8.6 °F 40% 30.14 in 10.0 mi WSW 11.5 mph - N/A   Partly Cloudy
5:53 PM 28.0 °F 18.1 °F 10.0 °F 47% 30.26 in 10.0 mi WSW 11.5 mph - N/A   Clear
6:53 PM 27.0 °F 15.6 °F 10.0 °F 49% 30.25 in 10.0 mi WSW 13.8 mph - N/A   Clear
7:53 PM 26.1 °F 15.0 °F 10.0 °F 51% 30.23 in 10.0 mi WSW 12.7 mph - N/A   Clear
8:53 PM 26.1 °F 16.8 °F 10.0 °F 51% 30.19 in 10.0 mi SW 9.2 mph - N/A   Clear
9:53 PM 28.0 °F 17.0 °F 7.0 °F 41% 30.15 in 10.0 mi SW 13.8 mph - N/A   Scattered Clouds
10:53 PM 28.0 °F 17.5 °F 6.1 °F 39% 30.11 in 10.0 mi SW 12.7 mph - N/A   Mostly Cloudy
11:53 PM 30.9 °F 19.8 °F 3.9 °F 32% 30.05 in 10.0 mi WSW 16.1 mph - N/A   Mostly Cloudy